Weather in Rodichi

Russia / Kirov Oblast     58°15′02″N   48°11′06″E
temp.,
°C
wind,
m/s
gust,
m/s
humid.,
%
clouds,
%
prec.,
mm/h
press.,
hPa
HPBL,
m
12 april, mon
mon1200:00+1wsw119833 0.0 103412
03:00−1nw119822 0.0 103710
06:000nne1310073 0.0 1039100
09:00+4ene129316 0.0 1040170
12:00+6ne128316 0.0 1040358
15:00+8ene237838 0.0 1040437
18:00+4ene1199100 0.0 103923
21:00+2sse2599100 0.0 103980
13 april, tue
tue1300:000sse2499100 0.0 103980
03:00+3se2798100 0.0 1038256
06:00+4sse31099100 0.0 1036319
09:00+6s3898100 0.0 1035307
12:00+11s478796 0.0 1033488
15:00+14s488265 0.0 1031662
18:00+11s3892100 0.0 1030180
21:00+9s3119476 0.0 1030227
14 april, wed
wed1400:00+7ssw3109238 0.0 1029181
03:00+6ssw389063 0.0 1029124
06:00+6ssw3788100 0.0 1029122
09:00+11ssw376977 0.0 1028289
12:00+15s475213 0.0 1027743
15:00+17ssw47495 0.0 10251036
18:00+13s23695 0.0 102453
21:00+9ssw37805 0.0 1024107
15 april, thu
thu1500:00+7ssw37875 0.0 1023122
03:00+7ssw25925 0.0 102280
06:00+7sw259247 0.0 1021102
09:00+13sw247018 0.0 1020346
12:00+16sw34525 0.0 10191183
15:00+17w23424 0.0 10191629
18:00+14wsw115699 0.0 101811
21:00+9nne51186100 0.0 1020372
16 april, fri
fri1600:00+7nne4886100 0.0 1020439
03:00+6nne4989100 0.1 1021492
06:00+4nne5894100 0.9 1022617
09:00+6ne477144 0.9 1023963
12:00+9nne57455 0.0 10241608
15:00+9nne574033 0.0 10251894
18:00+7nne49465 0.0 1026644
21:00+3nne27660 0.0 1028154